Volver al catálogo

USA 122

ActivoMilitarHEO
NORAD 23862·PAYLOAD·🇺🇸 United States

Lanzado May 12, 1996 desde Vandenberg Space Force Base

Loading…

Próximos Pases (próximas 24 horas)

TLE

ObsoletoSource: Mike McCants

Época: Oct 24, 2022, 15:46 UTC

1 23862U 96029D   22297.65721194 0.00000000  00000-0  00000-0 0    07
2 23862  63.3113 163.3626 3398152 268.6168  91.3832  5.52856044    00

Sigue USA 122 en tiempo real con AllMySat

Download on the App Store